Location: Wawayanda State Park
(41.1833°N, 74.4333°W)
Time: 19:47:06
(UTC-04:00)

RESURS DK-1 - Visible Passes

Search period start: 02 September 2014 00:00
Search period end: 12 September 2014 00:00
Orbit: 563 x 566 km, 69.9° (Epoch: 02 September)

Date Brightness Start Highest point End Pass type
(mag) Time Alt. Az. Time Alt. Az. Time Alt. Az.
02 Sep 5.3 22:45:21 10° N 22:45:38 11° NNE 22:45:38 11° NNE visible
03 Sep 5.2 22:44:55 10° N 22:45:28 13° N 22:45:28 13° N visible
04 Sep 5.2 22:44:36 10° N 22:45:20 14° N 22:45:20 14° N visible
05 Sep 5.1 22:44:22 10° NNW 22:45:13 15° N 22:45:13 15° N visible
06 Sep 5.1 22:44:13 10° NNW 22:45:08 16° NNW 22:45:08 16° NNW visible
07 Sep 5.1 22:44:07 10° NNW 22:45:05 17° NNW 22:45:05 17° NNW visible
08 Sep 4.6 21:07:37 10° NNE 21:09:03 13° NE 21:09:03 13° NE visible
08 Sep 5.2 22:44:06 10° NNW 22:45:03 17° NNW 22:45:03 17° NNW visible
09 Sep 4.3 21:06:56 10° N 21:09:04 17° NE 21:09:04 17° NE visible
09 Sep 5.2 22:44:09 10° NW 22:45:04 16° NW 22:45:04 16° NW visible
10 Sep 4.0 21:06:28 10° N 21:09:07 22° NE 21:09:07 22° NE visible
10 Sep 5.3 22:44:18 10° NW 22:45:07 15° NW 22:45:07 15° NW visible
11 Sep 3.6 21:06:09 10° N 21:09:13 29° NE 21:09:13 29° NE visible
11 Sep 5.4 22:44:34 10° NW 22:45:13 13° WNW 22:45:13 13° WNW visible
